Regional Weather Roundup
Issued by NWS

Home | Current Version | Previous Version | Text Only | Print | Product List | Glossary Off
Versions: 1 2 3 4 5 6 7 8 9 10 11 12 13 14 15 16 17 18 19 20 21 22 23 24 25 26 27 28 29 30 31 32 33 34 35 36 37 38 39 40 41 42 43 44 45 46 47 48 49 50

000
ASUS43 KLOT 280409
RWRIL

ILLINOIS REGIONAL WEATHER ROUNDUP
NATIONAL WEATHER SERVICE CHICAGO/ROMEOVILLE IL
1100 PM CDT THU JUL 27 2017

NOTE: "FAIR" INDICATES FEW OR NO CLOUDS BELOW 12,000 FEET WITH NO
SIGNIFICANT WEATHER AND/OR OBSTRUCTIONS TO VISIBILITY.

* THESE STATIONS ARE NOT UNDER NWS QUALITY CONTROL. THEY ALSO MAY NOT
  REPORT WEATHER SUCH AS PRECIPITATION OR FOG.

ILZ001-002-007-009-015-016-024-280500-
NORTHWEST ILLINOIS

CITY           SKY/WX    TMP DP  RH WIND       PRES   REMARKS
MOLINE         CLEAR     70  64  81 CALM      29.96R
STERLING*      CLEAR     67  63  87 NE6       29.97R
SAVANNA*       CLEAR     69  59  70 NE7       29.98S
$$

ILZ003-004-008-010-011-017-018-280500-
NORTH CENTRAL ILLINOIS

CITY           SKY/WX    TMP DP  RH WIND       PRES   REMARKS
ROCKFORD       CLEAR     68  56  65 N8        29.99R
FREEPORT*      CLEAR     64  56  76 NE6       30.01S
ROCHELLE*      CLEAR     66  56  68 NE10      29.98S
DE KALB*       CLEAR     64  55  73 N8        29.98S
PERU*          CLEAR     66  56  69 NE9       29.97R
$$

ILZ005-006-012>014-019>023-280500-
NORTHEAST ILLINOIS

CITY           SKY/WX    TMP DP  RH WIND       PRES   REMARKS
CHICAGO-OHARE  PTCLDY    70  59  68 N10       29.94S
CHICAGO-MIDWAY PTCLDY    72  62  71 N9        29.93S
AURORA         CLEAR     63  56  78 N6        29.96R
LANSING*       CLEAR     69  63  79 N3        29.93S
JOLIET*        CLEAR     70  60  70 N5        29.94S
WAUKEGAN       CLEAR     69  61  75 N8        29.95S
DUPAGE AIRPORT CLEAR     62  57  83 N7        29.95S
KANKAKEE*      MOCLDY    68  64  88 N6        29.92F
WHEELING       CLEAR     69  61  75 N6        29.96S
MORRIS*        CLEAR     63  60  89 CALM      29.93S
ROMEOVILLE*    CLEAR     67  57  71 NE9       29.93F
$$

LMZ740>746-280500-
SOUTHERN LAKE MICHIGAN

STATION/POSITION SKY/WX   TEMP    WIND        PRES    VSBY  WAVE
                          AIR SEA DIR/SP/G                  HT/PER
                          (F)     (DEG/KT/KT) (MB)    (MI)  (FT/S)
SOUTHERN BUOY              72 71   20/ 17/ 21 1013.2          5/ 6
WILMETTE HARBOR            72 72  360/ 14/ 17   N/A           5/ 6
HARRISON CRIB              72     350/ 16/ 17   N/A
BURNHAM HARBOR             71                   N/A
CALUMET HARBOR             71     340/ 10/ 14 1012.7F
BURNS HARBOR               74      30/ 11/ 15 1013.5F
MICHIGAN CITY              73      30/ 12/ 14   N/A
MICHIGAN CITY 6N           74 74   40/ 12/ 16   N/A           6/ 6
ST. JOSEPH                 71 72   60/ 10/ 14 1012.5          5/ 6
$$

ILZ025>027-034>036-040-047-049-050-058-095>099-280500-
WEST-CENTRAL ILLINOIS

CITY           SKY/WX    TMP DP  RH WIND       PRES   REMARKS
QUINCY         MOCLDY    75  71  87 N10       29.93R
GALESBURG*     CLEAR     69  62  80 NE7       29.97R
MACOMB*        PTCLDY    70  67  89 NE6       29.97R
JACKSONVILLE*  PTCLDY    75  72  88 N7        29.92R
PITTSFIELD*    CLOUDY    77  74  88 N5        29.93R
$$

ILZ028>032-037-038-041>044-048-051>054-059>061-280500-
CENTRAL ILLINOIS

CITY           SKY/WX    TMP DP  RH WIND       PRES   REMARKS
PONTIAC        CLEAR     68  62  82 NE8       29.94S
BLOOMINGTON    CLEAR     70  62  76 NE12      29.94R
DECATUR        PTCLDY    72  69  90 NE7       29.91R
PEORIA         CLEAR     73  62  68 NE9       29.94R
LACON*         CLEAR     69  57  65 NE3       29.94S
LINCOLN*       PTCLDY    74  71  90 NE6       29.92R
SPRINGFIELD    PTCLDY    77  73  87 NE8       29.91R
TAYLORVILLE    CLOUDY    74  74  98 NE7       29.90R
$$

ILZ033-039-045-046-055>057-062-063-280500-
EAST-CENTRAL ILLINOIS

CITY           SKY/WX    TMP DP  RH WIND       PRES   REMARKS
CHAMPAIGN      PTCLDY    72  67  84 NE10      29.90S
RANTOUL*       CLEAR     73  69  88 N9        29.91S
MATTOON        PTCLDY    74  74 100 N10       29.87F
PARIS*         CLOUDY    73  72  97 N6        29.89S FOG
$$

ILZ079-100>102-280500-
SOUTHWEST ILLINOIS

CITY           SKY/WX    TMP DP  RH WIND       PRES   REMARKS
ALTON          CLOUDY    73  73 100 NW3       29.89S
BELLEVILLE     CLOUDY    75  74  96 NW7       29.89R
CAHOKIA*       MOCLDY    77  74  90 CALM      29.88S
SPARTA*        CLOUDY    76  75  98 W5        29.88S
$$

ILZ064>066-069>071-074>076-080>082-084>086-088>090-092>094-280500-
SOUTH-CENTRAL ILLINOIS

CITY           SKY/WX    TMP DP  RH WIND       PRES   REMARKS
CARBONDALE     CLOUDY    79  76  90 SW6       29.86F HX  83
CAIRO*         CLOUDY    79  76  90 SW6       29.87F HX  84
EFFINGHAM*     CLOUDY    75  75 100 CALM      29.89S FOG
MARION         CLOUDY    79  77  94 SW3       29.87S HX  83
MT. VERNON     CLOUDY    78  76  93 W5        29.87R HX  81
CENTRALIA*     CLOUDY    76  76  99 CALM      29.87S
SALEM*         CLOUDY    76  75  94 CALM      29.87S
METROPOLIS*    CLOUDY    79  76  91 S3        29.88S HX  83
$$

ILZ067-068-072-073-078-083-087-091-280500-
SOUTHEAST ILLINOIS

CITY           SKY/WX    TMP DP  RH WIND       PRES   REMARKS
LAWRENCEVILLE  CLOUDY    76  75  97 NW3       29.86S
FLORA*         CLOUDY    78  76  93 CALM      29.87S HX  80
FAIRFIELD*     RAIN      77  76  98 CALM      29.85S
HARRISBURG*    CLOUDY    76  76  99 CALM      29.87S
ROBINSON*      CLOUDY    74  74 100 CALM      29.87S FOG
CARMI*         CLOUDY    77  76  99 S3        29.85F
$$

ABBREVIATIONS USED IN REMARKS
   TC - TEMPERATURE IN CELSIUS
  WCI - WIND CHILL INDEX
   HX - HEAT INDEX
  VSB - VISIBILITY
$$





USA.gov is the U.S. government's official web portal to all federal, state and local government web resources and services.